"startDT [UTC]","vpos","CH4 [ppm]","stdev(CH4) [ppm]","CO2 [ppm]","stdev(CO2) [ppm]","H2O [ppm]","stdev(H2O)","p_LGR [torr]","T_LGR [C]","mt1_LGR [us]","mt2_LGR [us]","T_ECpre [C]","T_EC1 [C]","T_EC2 [C]","p_inlet [hPa]","p_in [hPa]","p_out [hPa]","T_inlet [C]","RH_inlet [%]","dwpt_inlet [C]","T_vent [C]","RH_vent [%]","dwpt_vent [C]","flow_vent [l min-1]","flow_inlet [l min-1]","dwpt_sample [C]","T_room [C]"
2012-02-09 00:00:00,0.0,1.9138,0.0009,401.68,0.45,4.0,12.6,138.14,27.56,24.59,36.29,0.04,-272.74,-272.74,-46,558,-932,20.5,2.5,-28.0,20.9,2.6,-27.5,5.73,2.38,-28.7,26.8
2012-02-09 00:01:00,0.0,1.9137,0.0010,401.64,0.40,8.0,18.2,138.14,27.56,24.59,36.28,0.04,-272.74,-272.73,-47,558,-932,20.5,2.5,-28.1,20.9,2.6,-27.6,5.73,2.50,-28.7,26.7
2012-02-09 00:02:00,0.0,1.9135,0.0011,401.62,0.39,9.3,23.1,138.14,27.56,24.59,36.29,0.04,-272.73,-272.73,-47,558,-932,20.5,2.5,-28.2,20.9,2.5,-27.7,5.73,2.37,-28.6,26.7
2012-02-09 00:03:00,0.0,1.9139,0.0010,401.55,0.42,12.4,23.6,138.14,27.56,24.59,36.29,0.04,-272.74,-272.74,-46,558,-932,20.6,2.5,-28.2,20.9,2.5,-27.7,5.73,2.36,-28.7,26.7
2012-02-09 00:04:00,0.0,1.9133,0.0013,401.72,0.43,9.6,19.9,138.14,27.56,24.59,36.29,0.04,-272.74,-272.74,-47,558,-932,20.6,2.5,-28.1,20.9,2.5,-27.6,5.73,2.50,-28.7,26.7
2012-02-09 00:05:00,0.0,1.9135,0.0010,401.58,0.40,10.5,19.8,138.14,27.56,24.59,36.29,0.04,-272.73,-272.74,-46,558,-932,20.6,2.5,-28.2,20.9,2.5,-27.7,5.73,2.39,-28.6,26.7
2012-02-09 00:06:00,0.0,1.9136,0.0009,401.60,0.38,7.1,17.8,138.14,27.56,24.59,36.28,0.04,-272.74,-272.74,-46,558,-932,20.6,2.5,-28.1,20.9,2.5,-27.7,5.73,2.33,-28.7,26.7
2012-02-09 00:07:00,0.0,1.9136,0.0010,401.65,0.39,9.1,18.4,138.14,27.56,24.59,36.29,0.04,-272.74,-272.74,-47,558,-932,20.6,2.5,-28.1,20.9,2.5,-27.6,5.73,2.49,-28.7,26.7
2012-02-09 00:08:00,0.0,1.9135,0.0013,401.61,0.37,12.6,24.3,138.14,27.56,24.59,36.28,0.04,-272.73,-272.74,-46,558,-932,20.6,2.5,-28.1,20.9,2.5,-27.7,5.73,2.41,-28.6,26.7
2012-02-09 00:09:00,0.0,1.9133,0.0010,401.73,0.36,9.5,17.5,138.14,27.56,24.59,36.28,0.04,-272.73,-272.74,-47,558,-932,20.5,2.5,-28.1,20.9,2.5,-27.6,5.73,2.33,-28.6,26.7
2012-02-09 00:10:00,0.0,1.9136,0.0010,401.64,0.42,12.3,20.5,138.14,27.56,24.59,36.28,0.04,-272.74,-272.74,-47,558,-932,20.5,2.5,-28.0,20.9,2.6,-27.5,5.73,2.48,-28.7,26.7
2012-02-09 00:11:00,0.0,1.9138,0.0011,401.59,0.34,6.1,18.7,138.14,27.56,24.59,36.29,0.04,-272.74,-272.74,-46,559,-932,20.5,2.5,-28.1,20.9,2.6,-27.6,5.73,2.42,-28.5,26.8
2012-02-09 00:12:00,0.0,1.9134,0.0010,401.59,0.43,8.2,15.8,138.14,27.56,24.59,36.29,0.04,-272.74,-272.73,-47,558,-932,20.5,2.5,-28.1,20.9,2.5,-27.7,5.73,2.33,-28.5,26.7
2012-02-09 00:13:00,0.0,1.9138,0.0011,401.62,0.35,9.3,18.5,138.14,27.56,24.59,36.29,0.04,-272.74,-272.74,-46,558,-932,20.5,2.5,-28.2,20.9,2.5,-27.6,5.73,2.46,-28.6,26.7
2012-02-09 00:14:00,0.0,1.9137,0.0011,401.72,0.47,6.5,13.0,138.14,27.56,24.59,36.28,0.04,-272.74,-272.74,-47,558,-932,20.5,2.5,-28.2,20.9,2.5,-27.7,5.73,2.45,-28.6,26.7
2012-02-09 00:15:00,0.0,1.9137,0.0009,401.72,0.44,8.4,16.8,138.14,27.56,24.59,36.28,0.04,-272.73,-272.74,-47,558,-932,20.5,2.5,-28.2,20.9,2.5,-27.7,5.73,2.32,-28.6,26.7
2012-02-09 00:16:00,0.0,1.9133,0.0009,401.55,0.42,10.2,18.6,138.14,27.56,24.59,36.29,0.04,-272.74,-272.73,-46,558,-932,20.5,2.5,-28.2,20.9,2.5,-27.7,5.73,2.45,-28.5,26.7
2012-02-09 00:17:00,0.0,1.9138,0.0009,401.59,0.36,10.9,20.9,138.14,27.56,24.59,36.29,0.04,-272.74,-272.73,-47,558,-932,20.5,2.5,-28.2,20.9,2.5,-27.7,5.73,2.47,-28.6,26.7
2012-02-09 00:18:00,0.0,1.9139,0.0010,401.56,0.37,8.3,21.4,138.14,27.56,24.59,36.29,0.04,-272.74,-272.73,-46,558,-932,20.5,2.5,-28.1,20.9,2.5,-27.7,5.73,2.32,-28.5,26.7
2012-02-09 00:19:00,0.0,1.9132,0.0010,401.59,0.40,11.8,18.0,138.14,27.56,24.59,36.29,0.04,-272.73,-272.74,-46,558,-932,20.5,2.5,-28.1,20.9,2.5,-27.7,5.73,2.44,-28.4,26.7
2012-02-09 00:20:00,0.0,1.9135,0.0011,401.64,0.38,8.3,20.0,138.14,27.56,24.59,36.28,0.04,-272.74,-272.74,-47,558,-932,20.5,2.5,-28.0,20.9,2.6,-27.6,5.73,2.47,-28.5,26.7
2012-02-09 00:21:00,0.0,1.9137,0.0011,401.61,0.46,11.3,17.6,138.14,27.55,24.59,36.29,0.04,-272.74,-272.73,-46,558,-932,20.5,2.5,-28.1,20.9,2.5,-27.7,5.73,2.32,-28.6,26.7
2012-02-09 00:22:00,0.0,1.9136,0.0009,401.63,0.47,6.0,12.9,138.14,27.55,24.59,36.28,0.04,-272.74,-272.74,-47,558,-932,20.5,2.5,-28.1,20.9,2.6,-27.6,5.73,2.43,-28.5,26.7
2012-02-09 00:23:00,0.0,1.9139,0.0010,401.69,0.38,9.3,18.2,138.14,27.56,24.59,36.29,0.04,-272.74,-272.73,-46,558,-932,20.5,2.5,-28.1,20.9,2.6,-27.5,5.73,2.48,-28.7,26.6
2012-02-09 00:24:00,0.0,1.9141,0.0011,401.60,0.44,13.3,23.9,138.14,27.56,24.59,36.29,0.04,-272.74,-272.74,-46,558,-932,20.5,2.5,-28.0,20.9,2.6,-27.6,5.73,2.33,-28.6,26.6
2012-02-09 00:25:00,0.0,1.9135,0.0011,401.70,0.50,10.5,17.6,138.14,27.55,24.59,36.28,0.04,-272.74,-272.73,-47,558,-932,20.5,2.5,-28.0,20.9,2.6,-27.6,5.73,2.40,-28.6,26.6
2012-02-09 00:26:00,0.0,1.9135,0.0011,401.64,0.32,9.5,20.0,138.14,27.55,24.59,36.29,0.04,-272.74,-272.73,-46,558,-932,20.5,2.5,-28.0,20.9,2.6,-27.6,5.73,2.49,-28.6,26.7
2012-02-09 00:27:00,0.0,1.9138,0.0011,401.62,0.44,16.3,24.2,138.14,27.55,24.59,36.29,0.04,-272.74,-272.74,-46,558,-932,20.6,2.5,-28.1,20.9,2.6,-27.6,5.73,2.34,-28.5,26.6
2012-02-09 00:28:00,0.0,1.9137,0.0011,401.64,0.45,10.3,21.6,138.14,27.55,24.59,36.28,0.04,-272.74,-272.75,-47,558,-932,20.6,2.5,-28.0,20.9,2.6,-27.5,5.73,2.38,-28.6,26.6
2012-02-09 00:29:00,0.0,1.9138,0.0009,401.64,0.38,10.5,23.5,138.14,27.55,24.59,36.29,0.04,-272.74,-272.73,-46,559,-932,20.6,2.5,-28.0,20.9,2.6,-27.5,5.73,2.50,-28.6,26.6
2012-02-09 00:30:00,0.0,1.9138,0.0010,401.61,0.38,13.2,21.9,138.14,27.55,24.59,36.29,0.04,-272.74,-272.74,-47,558,-932,20.5,2.5,-28.1,20.9,2.6,-27.5,5.73,2.35,-28.6,26.6
2012-02-09 00:31:00,0.0,1.9135,0.0010,401.59,0.37,11.5,21.4,138.14,27.55,24.59,36.29,0.04,-272.74,-272.74,-46,558,-932,20.5,2.5,-28.0,20.9,2.6,-27.5,5.73,2.37,-28.7,26.6
2012-02-09 00:32:00,0.0,1.9135,0.0010,401.73,0.43,3.3,10.7,138.14,27.55,24.59,36.28,0.04,-272.73,-272.74,-46,558,-932,20.5,2.5,-28.0,20.9,2.6,-27.5,5.73,2.50,-28.5,26.6
2012-02-09 00:33:00,0.0,1.9137,0.0012,401.71,0.46,8.7,16.9,138.14,27.55,24.59,36.28,0.04,-272.74,-272.74,-47,558,-932,20.6,2.5,-28.0,20.9,2.6,-27.6,5.73,2.37,-28.6,26.7
2012-02-09 00:34:00,0.0,1.9137,0.0011,401.62,0.43,10.4,20.2,138.14,27.55,24.59,36.29,0.04,-272.74,-272.74,-46,558,-932,20.5,2.5,-28.0,20.9,2.6,-27.6,5.73,2.35,-28.6,26.6
2012-02-09 00:35:00,0.0,1.9136,0.0012,401.53,0.40,8.4,16.6,138.14,27.55,24.59,36.28,0.04,-272.74,-272.73,-47,558,-932,20.6,2.5,-28.1,20.9,2.5,-27.7,5.73,2.50,-28.6,26.7
2012-02-09 00:36:00,0.0,1.9139,0.0011,401.66,0.40,7.7,18.0,138.14,27.55,24.59,36.28,0.04,-272.74,-272.74,-47,558,-932,20.6,2.5,-28.1,20.9,2.5,-27.7,5.73,2.38,-28.6,26.7
2012-02-09 00:37:00,0.0,1.9139,0.0010,401.55,0.37,10.0,21.4,138.15,27.55,24.59,36.29,0.04,-272.74,-272.74,-46,558,-932,20.6,2.5,-28.1,20.9,2.5,-27.7,5.73,2.34,-28.5,26.7
2012-02-09 00:38:00,0.0,1.9136,0.0010,401.60,0.41,10.0,21.4,138.14,27.55,24.59,36.29,0.04,-272.73,-272.74,-47,558,-932,20.6,2.5,-28.1,20.9,2.5,-27.7,5.73,2.49,-28.6,26.7
2012-02-09 00:39:00,0.0,1.9142,0.0010,401.66,0.39,11.1,20.6,138.14,27.55,24.59,36.28,0.04,-272.74,-272.73,-46,558,-932,20.6,2.5,-28.2,20.9,2.5,-27.8,5.73,2.40,-28.6,26.7
2012-02-09 00:40:00,0.0,1.9138,0.0010,401.75,0.41,10.3,19.2,138.14,27.55,24.59,36.29,0.04,-272.73,-272.74,-46,558,-932,20.6,2.5,-28.3,20.9,2.5,-27.8,5.73,2.33,-28.5,26.7
2012-02-09 00:41:00,0.0,1.9138,0.0009,401.63,0.41,10.0,21.9,138.14,27.55,24.59,36.29,0.04,-272.73,-272.74,-47,558,-932,20.6,2.5,-28.2,20.9,2.5,-27.8,5.73,2.49,-28.4,26.7
2012-02-09 00:42:00,0.0,1.9133,0.0010,401.66,0.42,10.8,17.5,138.14,27.55,24.59,36.29,0.04,-272.74,-272.74,-46,558,-932,20.5,2.5,-28.2,20.9,2.5,-27.8,5.73,2.40,-28.6,26.7
2012-02-09 00:43:00,0.0,1.9138,0.0012,401.76,0.40,14.5,23.0,138.14,27.55,24.59,36.29,0.04,-272.74,-272.73,-47,558,-932,20.5,2.5,-28.2,20.9,2.5,-27.8,5.73,2.33,-28.5,26.7
2012-02-09 00:44:00,0.0,1.9138,0.0012,401.68,0.44,20.0,27.4,138.14,27.55,24.59,36.29,0.04,-272.74,-272.74,-46,558,-932,20.5,2.5,-28.3,20.9,2.5,-27.8,5.73,2.49,-28.5,26.7
2012-02-09 00:45:00,0.0,1.9137,0.0011,401.77,0.40,11.9,22.1,138.14,27.55,24.59,36.28,0.04,-272.74,-272.74,-46,558,-932,20.5,2.5,-28.3,20.9,2.5,-27.8,5.73,2.40,-28.6,26.7
2012-02-09 00:46:00,0.0,1.9138,0.0011,401.77,0.47,9.6,20.3,138.14,27.55,24.59,36.28,0.04,-272.72,-272.73,-47,558,-932,20.5,2.5,-28.3,20.9,2.5,-27.8,5.73,2.33,-28.5,26.7
2012-02-09 00:47:00,0.0,1.9134,0.0011,401.66,0.40,14.7,21.9,138.14,27.55,24.59,36.29,0.04,-272.74,-272.74,-46,558,-932,20.5,2.5,-28.2,20.9,2.5,-27.8,5.73,2.49,-28.5,26.7
2012-02-09 00:48:00,0.0,1.9136,0.0009,401.62,0.50,10.3,18.3,138.14,27.55,24.59,36.28,0.04,-272.73,-272.73,-46,558,-932,20.5,2.5,-28.3,20.9,2.5,-27.8,5.73,2.41,-28.5,26.7
2012-02-09 00:49:00,0.0,1.9136,0.0010,401.63,0.44,10.7,19.2,138.14,27.55,24.59,36.29,0.04,-272.74,-272.75,-47,558,-932,20.6,2.5,-28.2,20.9,2.5,-27.8,5.73,2.32,-28.5,26.7
2012-02-09 00:50:00,0.0,1.9138,0.0011,401.68,0.39,9.5,15.4,138.14,27.55,24.59,36.28,0.04,-272.74,-272.74,-46,558,-932,20.6,2.5,-28.3,20.9,2.5,-27.7,5.73,2.48,-28.5,26.7
2012-02-09 00:51:00,0.0,1.9135,0.0012,401.75,0.39,14.6,24.3,138.14,27.55,24.59,36.28,0.04,-272.74,-272.74,-47,559,-932,20.6,2.5,-28.2,20.9,2.5,-27.7,5.73,2.42,-28.5,26.7
2012-02-09 00:52:00,0.0,1.9138,0.0010,401.66,0.39,7.7,14.8,138.14,27.55,24.59,36.29,0.04,-272.74,-272.73,-46,558,-932,20.6,2.5,-28.3,20.9,2.5,-27.7,5.73,2.32,-28.6,26.6
2012-02-09 00:53:00,0.0,1.9139,0.0011,401.68,0.38,13.2,20.7,138.14,27.54,24.59,36.29,0.04,-272.74,-272.73,-46,558,-932,20.6,2.5,-28.2,20.9,2.5,-27.7,5.73,2.48,-28.5,26.7
2012-02-09 00:54:00,0.0,1.9136,0.0011,401.67,0.36,8.6,16.3,138.14,27.54,24.59,36.29,0.04,-272.73,-272.73,-47,558,-932,20.6,2.5,-28.2,20.9,2.5,-27.6,5.73,2.42,-28.5,26.7
2012-02-09 00:55:00,0.0,1.9137,0.0010,401.65,0.39,10.8,19.3,138.14,27.54,24.59,36.29,0.04,-272.74,-272.74,-46,558,-931,20.6,2.5,-28.1,20.9,2.5,-27.7,5.73,2.32,-28.5,26.7
2012-02-09 00:56:00,0.0,1.9136,0.0011,401.73,0.43,6.8,17.0,138.14,27.55,24.59,36.28,0.04,-272.73,-272.73,-47,558,-932,20.6,2.5,-28.1,20.9,2.5,-27.7,5.73,2.47,-28.6,26.8
2012-02-09 00:57:00,0.0,1.9134,0.0010,401.64,0.40,17.2,27.0,138.14,27.55,24.59,36.29,0.04,-272.74,-272.73,-46,558,-932,20.5,2.5,-28.2,20.9,2.5,-27.6,5.73,2.43,-28.5,26.8
2012-02-09 00:58:00,0.0,1.9138,0.0009,401.65,0.37,12.9,20.5,138.14,27.55,24.59,36.29,0.04,-272.74,-272.73,-46,559,-932,20.5,2.5,-28.1,20.9,2.5,-27.7,5.73,2.32,-28.6,26.8
2012-02-09 00:59:00,0.0,1.9137,0.0011,401.68,0.38,11.0,19.0,138.14,27.55,24.59,36.29,0.04,-272.74,-272.74,-47,558,-932,20.6,2.5,-28.2,20.9,2.5,-27.7,5.73,2.47,-28.5,26.7
2012-02-09 01:00:00,0.0,1.9140,0.0013,401.72,0.33,10.5,23.1,138.14,27.54,24.59,36.29,0.04,-272.74,-272.74,-46,558,-932,20.5,2.5,-28.1,20.9,2.5,-27.7,5.73,2.43,-28.5,26.7
2012-02-09 01:01:00,0.0,1.9142,0.0011,401.68,0.37,8.6,19.2,138.14,27.54,24.59,36.29,0.04,-272.74,-272.74,-47,558,-932,20.5,2.5,-28.1,20.9,2.5,-27.7,5.73,2.32,-28.6,26.7
2012-02-09 01:02:00,0.0,1.9139,0.0008,401.71,0.42,15.9,25.4,138.14,27.54,24.59,36.29,0.04,-272.74,-272.74,-46,558,-932,20.5,2.5,-28.0,20.9,2.6,-27.6,5.73,2.47,-28.6,26.7
2012-02-09 01:03:00,0.0,1.9134,0.0009,401.66,0.41,11.1,21.5,138.14,27.54,24.59,36.29,0.04,-272.73,-272.74,-46,558,-932,20.5,2.5,-28.0,20.9,2.6,-27.6,5.73,2.43,-28.6,26.7
2012-02-09 01:04:00,0.0,1.9136,0.0010,401.62,0.37,11.8,21.4,138.14,27.54,24.59,36.29,0.04,-272.73,-272.74,-47,558,-932,20.5,2.5,-28.1,20.9,2.6,-27.5,5.73,2.32,-28.5,26.7
2012-02-09 01:05:00,0.0,1.9137,0.0009,401.67,0.40,13.9,20.3,138.14,27.54,24.59,36.29,0.04,-272.74,-272.73,-46,558,-932,20.5,2.5,-28.0,20.9,2.6,-27.5,5.73,2.48,-28.5,26.7
2012-02-09 01:06:00,0.0,1.9138,0.0011,401.62,0.38,11.2,19.6,138.14,27.54,24.59,36.29,0.04,-272.74,-272.73,-47,558,-931,20.5,2.5,-28.0,20.9,2.6,-27.4,5.73,2.42,-28.6,26.7
2012-02-09 01:07:00,0.0,1.9137,0.0010,401.61,0.44,12.2,19.8,138.14,27.54,24.59,36.29,0.04,-272.74,-272.74,-47,558,-932,20.5,2.5,-27.9,20.9,2.6,-27.4,5.73,2.32,-28.6,26.7
2012-02-09 01:08:00,0.0,1.9141,0.0011,401.63,0.47,10.9,20.6,138.14,27.54,24.59,36.29,0.04,-272.74,-272.74,-46,558,-932,20.5,2.5,-28.1,20.9,2.5,-27.7,5.73,2.48,-28.6,26.7
2012-02-09 01:09:00,0.0,1.9144,0.0011,401.59,0.34,10.3,19.7,138.14,27.54,24.59,36.29,0.04,-272.73,-272.73,-47,558,-932,20.5,2.5,-28.3,20.9,2.5,-27.8,5.73,2.41,-28.6,26.7
2012-02-09 01:10:00,0.0,1.9140,0.0010,401.73,0.35,10.8,19.0,138.14,27.55,24.59,36.28,0.04,-272.74,-272.74,-46,558,-932,20.5,2.4,-28.4,20.9,2.5,-27.9,5.73,2.32,-28.6,26.7
2012-02-09 01:11:00,0.0,1.9138,0.0010,401.69,0.42,7.7,17.5,138.14,27.55,24.59,36.29,0.04,-272.73,-272.74,-46,559,-932,20.5,2.4,-28.4,20.9,2.5,-27.9,5.73,2.49,-28.5,26.7
2012-02-09 01:12:00,0.0,1.9140,0.0011,401.69,0.43,14.6,20.9,138.14,27.55,24.59,36.28,0.04,-272.73,-272.73,-47,558,-932,20.5,2.4,-28.5,20.9,2.5,-28.0,5.73,2.41,-28.5,26.7
2012-02-09 01:13:00,0.0,1.9138,0.0010,401.76,0.45,11.5,20.5,138.14,27.55,24.59,36.28,0.04,-272.74,-272.74,-46,558,-931,20.5,2.4,-28.4,20.9,2.5,-28.0,5.73,2.33,-28.6,26.6
2012-02-09 01:14:00,0.0,1.9136,0.0008,401.65,0.33,7.0,13.9,138.14,27.55,24.59,36.29,0.04,-272.74,-272.74,-47,559,-932,20.5,2.4,-28.4,20.9,2.5,-27.9,5.73,2.48,-28.5,26.7
2012-02-09 01:15:00,0.0,1.9138,0.0009,401.67,0.46,16.3,23.9,138.14,27.54,24.59,36.29,0.04,-272.73,-272.74,-46,558,-931,20.5,2.4,-28.3,20.9,2.5,-27.9,5.73,2.41,-28.6,26.6
2012-02-09 01:16:00,0.0,1.9137,0.0012,401.60,0.38,10.5,20.0,138.14,27.54,24.59,36.29,0.04,-272.74,-272.73,-46,558,-931,20.5,2.5,-28.3,20.9,2.5,-27.8,5.73,2.33,-28.6,26.6
2012-02-09 01:17:00,0.0,1.9141,0.0010,401.65,0.46,13.8,22.0,138.14,27.55,24.59,36.28,0.04,-272.74,-272.74,-47,558,-931,20.5,2.5,-28.3,20.9,2.5,-27.8,5.73,2.49,-28.5,26.6
2012-02-09 01:18:00,0.0,1.9136,0.0009,401.75,0.40,7.3,15.9,138.14,27.55,24.59,36.28,0.04,-272.74,-272.74,-46,558,-931,20.5,2.5,-28.3,20.9,2.5,-27.8,5.73,2.40,-28.4,26.7
2012-02-09 01:19:00,0.0,1.9137,0.0011,401.74,0.38,11.1,21.3,138.14,27.55,24.59,36.29,0.04,-272.74,-272.73,-47,558,-931,20.5,2.5,-28.3,20.9,2.5,-27.8,5.73,2.33,-28.5,26.7
2012-02-09 01:20:00,0.0,1.9140,0.0009,401.74,0.40,8.9,19.8,138.14,27.55,24.59,36.28,0.04,-272.74,-272.73,-46,558,-931,20.5,2.5,-28.3,20.9,2.5,-27.8,5.73,2.48,-28.4,26.7
2012-02-09 01:21:00,0.0,1.9142,0.0010,401.57,0.42,8.4,18.2,138.14,27.55,24.59,36.29,0.04,-272.74,-272.74,-46,558,-931,20.5,2.5,-28.3,20.9,2.5,-27.8,5.73,2.41,-28.6,26.7
2012-02-09 01:22:00,0.0,1.9138,0.0010,401.73,0.40,11.1,18.9,138.14,27.55,24.59,36.29,0.04,-272.74,-272.74,-47,558,-931,20.5,2.5,-28.3,20.9,2.5,-27.8,5.73,2.32,-28.5,26.7
2012-02-09 01:23:00,0.0,1.9136,0.0009,401.76,0.37,8.5,17.6,138.14,27.55,24.59,36.29,0.04,-272.74,-272.74,-46,558,-931,20.6,2.5,-28.2,20.9,2.5,-27.8,5.73,2.49,-28.4,26.6
2012-02-09 01:24:00,0.0,1.9140,0.0010,401.88,0.43,9.0,14.3,138.14,27.55,24.59,36.28,0.04,-272.74,-272.74,-47,558,-931,20.6,2.5,-28.3,20.9,2.5,-27.8,5.73,2.40,-28.5,26.6
2012-02-09 01:25:00,0.0,1.9136,0.0010,401.77,0.39,10.5,21.4,138.14,27.54,24.59,36.29,0.04,-272.74,-272.74,-46,558,-931,20.6,2.5,-28.2,20.9,2.5,-27.8,5.73,2.33,-28.5,26.6
2012-02-09 01:26:00,0.0,1.9137,0.0012,401.75,0.39,12.8,20.0,138.14,27.54,24.59,36.29,0.04,-272.73,-272.74,-46,558,-931,20.6,2.4,-28.3,20.9,2.5,-27.9,5.73,2.50,-28.5,26.7
2012-02-09 01:27:00,0.0,1.9133,0.0010,401.86,0.44,16.0,24.1,138.14,27.54,24.59,36.28,0.04,-272.74,-272.74,-47,558,-931,20.6,2.4,-28.3,20.9,2.5,-27.9,5.73,2.37,-28.5,26.6
2012-02-09 01:28:00,0.0,1.9139,0.0009,401.76,0.37,12.8,22.8,138.14,27.55,24.59,36.28,0.04,-272.74,-272.73,-46,558,-931,20.6,2.4,-28.4,20.9,2.5,-27.9,5.73,2.36,-28.5,26.6
2012-02-09 01:29:00,0.0,1.9138,0.0011,401.77,0.41,16.8,24.9,138.15,27.55,24.59,36.29,0.04,-272.74,-272.74,-47,558,-931,20.6,2.4,-28.4,20.9,2.5,-27.9,5.73,2.50,-28.4,26.7
2012-02-09 01:30:00,0.0,1.9141,0.0009,401.71,0.39,12.0,19.8,138.14,27.55,24.59,36.29,0.04,-272.74,-272.74,-46,558,-931,20.6,2.4,-28.4,20.9,2.5,-27.9,5.73,2.36,-28.5,26.7
2012-02-09 01:31:00,0.0,1.9139,0.0009,401.85,0.39,11.0,18.1,138.14,27.55,24.59,36.29,0.04,-272.74,-272.73,-46,558,-931,20.6,2.4,-28.4,20.9,2.5,-27.9,5.73,2.36,-28.5,26.7
2012-02-09 01:32:00,0.0,1.9133,0.0011,401.79,0.39,6.1,13.5,138.14,27.55,24.59,36.29,0.04,-272.74,-272.73,-47,558,-932,20.6,2.4,-28.4,20.9,2.5,-27.9,5.73,2.50,-28.4,26.7
2012-02-09 01:33:00,0.0,1.9139,0.0009,401.72,0.38,13.9,22.2,138.14,27.55,24.59,36.29,0.04,-272.74,-272.73,-46,558,-931,20.6,2.4,-28.4,21.0,2.5,-27.9,5.73,2.34,-28.5,26.7
2012-02-09 01:34:00,0.0,1.9136,0.0011,401.69,0.41,13.7,21.6,138.14,27.55,24.59,36.29,0.04,-272.74,-272.73,-47,558,-931,20.6,2.4,-28.3,20.9,2.5,-27.9,5.73,2.38,-28.5,26.7
2012-02-09 01:35:00,0.0,1.9138,0.0013,401.77,0.43,12.0,19.7,138.14,27.55,24.59,36.28,0.04,-272.73,-272.74,-46,558,-932,20.6,2.4,-28.4,20.9,2.5,-27.9,5.73,2.49,-28.4,26.7
2012-02-09 01:36:00,0.0,1.9139,0.0011,401.70,0.43,10.5,20.9,138.14,27.55,24.59,36.29,0.04,-272.73,-272.73,-46,559,-931,20.6,2.4,-28.4,20.9,2.5,-27.9,5.73,2.33,-28.4,26.8
2012-02-09 01:37:00,0.0,1.9137,0.0012,401.73,0.42,12.0,19.6,138.14,27.55,24.59,36.29,0.04,-272.73,-272.74,-47,558,-932,20.6,2.4,-28.4,21.0,2.5,-27.9,5.73,2.40,-28.4,26.7
2012-02-09 01:38:00,0.0,1.9137,0.0012,401.78,0.46,13.0,19.6,138.14,27.55,24.59,36.28,0.04,-272.73,-272.74,-46,559,-932,20.6,2.4,-28.4,21.0,2.5,-27.9,5.73,2.48,-28.4,26.7
2012-02-09 01:39:00,0.0,1.9139,0.0009,401.79,0.47,19.7,28.8,138.14,27.55,24.59,36.28,0.04,-272.73,-272.74,-47,558,-932,20.6,2.4,-28.4,21.0,2.5,-27.9,5.73,2.32,-28.4,26.7
2012-02-09 01:40:00,0.0,1.9135,0.0012,401.83,0.44,8.1,16.0,138.14,27.55,24.59,36.29,0.04,-272.74,-272.73,-46,558,-931,20.6,2.4,-28.3,21.0,2.5,-27.8,5.73,2.41,-28.4,26.7
2012-02-09 01:41:00,0.0,1.9139,0.0010,401.76,0.44,13.1,21.1,138.14,27.55,24.59,36.29,0.04,-272.74,-272.74,-46,558,-932,20.6,2.4,-28.3,21.0,2.5,-27.9,5.73,2.48,-28.5,26.7
2012-02-09 01:42:00,0.0,1.9137,0.0011,401.83,0.34,9.1,19.8,138.14,27.55,24.59,36.28,0.04,-272.74,-272.74,-47,559,-931,20.6,2.5,-28.2,21.0,2.5,-27.8,5.73,2.33,-28.4,26.7
2012-02-09 01:43:00,0.0,1.9137,0.0010,401.65,0.33,9.6,19.2,138.14,27.55,24.59,36.29,0.04,-272.73,-272.73,-46,559,-931,20.6,2.5,-28.2,21.0,2.5,-27.7,5.73,2.43,-28.5,26.7
2012-02-09 01:44:00,0.0,1.9137,0.0012,401.77,0.40,13.9,25.1,138.14,27.55,24.59,36.29,0.04,-272.74,-272.74,-47,559,-931,20.6,2.5,-28.3,21.0,2.5,-27.7,5.73,2.48,-28.5,26.8
2012-02-09 01:45:00,0.0,1.9138,0.0011,401.73,0.37,11.4,20.2,138.14,27.55,24.59,36.29,0.04,-272.74,-272.73,-46,558,-931,20.6,2.5,-28.2,21.0,2.5,-27.8,5.73,2.31,-28.5,26.8
2012-02-09 01:46:00,0.0,1.9135,0.0011,401.76,0.37,11.3,18.4,138.14,27.55,24.59,36.29,0.04,-272.74,-272.73,-46,559,-931,20.6,2.5,-28.3,21.0,2.5,-27.7,5.73,2.43,-28.4,26.8
2012-02-09 01:47:00,0.0,1.9136,0.0011,401.74,0.42,15.5,26.6,138.14,27.55,24.59,36.29,0.04,-272.74,-272.74,-47,558,-931,20.6,2.5,-28.2,21.0,2.5,-27.7,5.73,2.47,-28.5,26.8
2012-02-09 01:48:00,0.0,1.9135,0.0011,401.73,0.40,14.7,26.4,138.14,27.55,24.59,36.29,0.04,-272.74,-272.74,-46,558,-931,20.6,2.5,-28.2,21.0,2.5,-27.8,5.73,2.31,-28.5,26.8
2012-02-09 01:49:00,0.0,1.9136,0.0009,401.70,0.39,14.9,25.7,138.14,27.55,24.59,36.29,0.04,-272.73,-272.74,-47,558,-931,20.6,2.5,-28.1,21.0,2.5,-27.7,5.73,2.43,-28.5,26.7
2012-02-09 01:50:00,0.0,1.9135,0.0011,401.75,0.38,16.0,24.3,138.14,27.55,24.59,36.28,0.04,-272.73,-272.73,-47,559,-931,20.6,2.5,-28.1,21.0,2.5,-27.6,5.73,2.47,-28.5,26.7
2012-02-09 01:51:00,0.0,1.9135,0.0010,401.71,0.40,8.3,15.3,138.14,27.55,24.59,36.28,0.04,-272.74,-272.74,-46,559,-931,20.6,2.5,-28.1,21.0,2.5,-27.6,5.73,2.32,-28.5,26.7
2012-02-09 01:52:00,0.0,1.9135,0.0009,401.77,0.41,16.1,27.5,138.14,27.55,24.59,36.28,0.04,-272.73,-272.73,-47,558,-931,20.6,2.5,-28.0,21.0,2.5,-27.6,5.73,2.44,-28.5,26.7
2012-02-09 01:53:00,0.0,1.9135,0.0010,401.67,0.39,11.6,20.7,138.14,27.55,24.59,36.28,0.04,-272.73,-272.73,-46,558,-931,20.6,2.5,-28.0,21.0,2.5,-27.6,5.73,2.46,-28.5,26.7
2012-02-09 01:54:00,0.0,1.9135,0.0011,401.76,0.41,15.0,21.9,138.14,27.56,24.59,36.29,0.04,-272.74,-272.74,-47,558,-931,20.6,2.5,-28.0,21.0,2.6,-27.6,5.73,2.31,-28.5,26.6
2012-02-09 01:55:00,0.0,1.9138,0.0013,401.82,0.44,8.4,17.0,138.14,27.56,24.59,36.28,0.04,-272.73,-272.74,-47,559,-931,20.6,2.5,-28.0,21.0,2.5,-27.6,5.73,2.45,-28.5,26.7
2012-02-09 01:56:00,0.0,1.9139,0.0009,401.75,0.49,13.2,23.7,138.14,27.56,24.59,36.29,0.04,-272.73,-272.74,-46,558,-931,20.6,2.5,-28.1,21.0,2.5,-27.6,5.73,2.45,-28.5,26.8
2012-02-09 01:57:00,0.0,1.9141,0.0013,401.82,0.45,12.6,18.5,138.14,27.56,24.58,36.28,0.04,-272.73,-272.74,-47,559,-931,20.6,2.5,-28.1,21.0,2.5,-27.6,5.73,2.31,-28.5,26.8
2012-02-09 01:58:00,0.0,1.9138,0.0010,401.81,0.41,16.5,24.4,138.14,27.56,24.59,36.29,0.04,-272.74,-272.74,-46,558,-931,20.6,2.5,-28.1,21.0,2.5,-27.6,5.73,2.45,-28.5,26.8
2012-02-09 01:59:00,0.0,1.9129,0.0011,401.73,0.39,13.9,23.4,138.14,27.56,24.59,36.29,0.04,-272.74,-272.74,-46,559,-931,20.6,2.5,-28.1,21.0,2.5,-27.6,5.73,2.46,-28.5,26.8
2012-02-09 02:00:00,1.0,1.8907,0.0158,387.00,10.30,11.7,22.7,138.14,27.56,24.59,36.29,0.04,-272.74,-272.74,-47,537,-931,20.6,2.5,-28.0,21.0,2.5,-27.6,5.73,2.29,-28.4,26.7
2012-02-09 02:01:00,1.0,1.8723,0.0011,375.10,0.43,19.0,26.8,138.14,27.56,24.59,36.29,0.04,-272.74,-272.74,-46,535,-931,20.6,2.5,-28.0,21.0,2.5,-27.6,5.73,2.47,-28.4,26.8
2012-02-09 02:02:00,1.0,1.8721,0.0009,375.12,0.37,16.1,23.9,138.14,27.56,24.59,36.30,0.04,-272.74,-272.73,-47,535,-931,20.6,2.5,-28.0,21.0,2.5,-27.6,5.73,2.43,-28.4,26.8
2012-02-09 02:03:00,1.0,1.8719,0.0012,375.14,0.48,21.4,28.5,138.14,27.56,24.59,36.30,0.04,-272.74,-272.73,-46,535,-931,20.6,2.5,-28.0,21.0,2.6,-27.5,5.73,2.31,-28.4,26.8
2012-02-09 02:04:00,1.0,1.8721,0.0009,375.03,0.45,17.0,24.0,138.14,27.56,24.59,36.30,0.04,-272.74,-272.74,-46,535,-931,20.7,2.5,-28.0,21.0,2.6,-27.5,5.73,2.48,-28.4,26.9
2012-02-09 02:05:00,0.0,1.8950,0.0159,390.00,10.29,16.3,27.6,138.14,27.56,24.59,36.29,0.04,-272.73,-272.74,-47,557,-931,20.7,2.5,-28.0,21.0,2.6,-27.5,5.73,2.47,-28.4,26.9
2012-02-09 02:06:00,0.0,1.9132,0.0011,401.59,0.40,17.3,24.1,138.14,27.56,24.59,36.29,0.04,-272.73,-272.74,-46,557,-931,20.7,2.5,-27.9,21.1,2.6,-27.5,5.73,2.32,-28.4,27.0
2012-02-09 02:07:00,0.0,1.9133,0.0010,401.83,0.37,19.1,26.7,138.14,27.56,24.59,36.28,0.04,-272.73,-272.74,-47,557,-931,20.8,2.5,-27.9,21.1,2.6,-27.4,5.73,2.49,-28.4,27.0
2012-02-09 02:08:00,0.0,1.9129,0.0011,401.64,0.42,14.6,26.3,138.14,27.56,24.59,36.29,0.04,-272.74,-272.74,-46,557,-931,20.8,2.5,-27.9,21.1,2.6,-27.5,5.73,2.40,-28.4,26.9
2012-02-09 02:09:00,0.0,1.9132,0.0010,401.74,0.41,13.5,25.5,138.14,27.56,24.59,36.29,0.04,-272.74,-272.74,-47,557,-931,20.8,2.5,-27.9,21.1,2.6,-27.4,5.73,2.33,-28.4,27.0
2012-02-09 02:10:00,0.0,1.9136,0.0010,401.72,0.45,16.6,25.1,138.14,27.56,24.59,36.29,0.04,-272.74,-272.74,-47,558,-931,20.8,2.5,-27.9,21.1,2.6,-27.4,5.73,2.49,-28.4,26.9
2012-02-09 02:11:00,0.0,1.9133,0.0011,401.72,0.40,16.2,21.7,138.14,27.56,24.59,36.30,0.04,-272.74,-272.74,-46,558,-931,20.8,2.5,-27.9,21.1,2.6,-27.4,5.73,2.39,-28.4,26.9
2012-02-09 02:12:00,0.0,1.9132,0.0009,401.71,0.40,18.8,29.9,138.14,27.57,24.59,36.29,0.04,-272.73,-272.73,-47,558,-931,20.8,2.5,-27.8,21.1,2.6,-27.4,5.73,2.34,-28.4,27.0
2012-02-09 02:13:00,0.0,1.9129,0.0010,401.77,0.40,14.1,23.1,138.14,27.57,24.59,36.29,0.04,-272.74,-272.73,-46,558,-931,20.8,2.5,-27.9,21.1,2.6,-27.4,5.73,2.49,-28.4,26.9
2012-02-09 02:14:00,0.0,1.9130,0.0011,401.65,0.43,11.0,19.0,138.14,27.57,24.59,36.29,0.04,-272.74,-272.74,-47,558,-931,20.8,2.5,-27.8,21.1,2.6,-27.4,5.73,2.37,-28.4,26.9
2012-02-09 02:15:00,0.0,1.9135,0.0011,401.75,0.42,13.8,22.5,138.14,27.57,24.59,36.28,0.04,-272.74,-272.74,-47,558,-931,20.9,2.5,-27.9,21.1,2.6,-27.4,5.73,2.35,-28.4,26.9
2012-02-09 02:16:00,0.0,1.9133,0.0012,401.74,0.46,14.9,22.9,138.14,27.57,24.59,36.28,0.04,-272.74,-272.74,-46,558,-931,20.8,2.5,-27.8,21.1,2.6,-27.3,5.73,2.50,-28.4,26.9
2012-02-09 02:17:00,0.0,1.9131,0.0009,401.75,0.44,17.9,25.4,138.14,27.57,24.59,36.29,0.04,-272.74,-272.73,-47,558,-931,20.8,2.5,-27.8,21.1,2.6,-27.3,5.73,2.36,-28.4,26.9